Regional Weather Roundup
Issued by NWS

Home | Current Version | Previous Version | Graphics & Text | Print | Product List | Glossary On
Versions: 1 2 3 4 5 6 7 8 9 10 11 12 13 14 15 16 17 18 19 20 21 22 23 24 25 26 27 28 29 30 31 32 33 34 35 36 37 38 39 40 41 42 43 44 45 46 47 48 49 50
000
ASUS43 KLMK 281510
RWRKY
KENTUCKY REGIONAL WEATHER ROUNDUP
NATIONAL WEATHER SERVICE LOUISVILLE KY
1000 AM EST SAT FEB 28 2015

NOTE "FAIR" INDICATES FEW OR NO CLOUDS BELOW 12,000 FEET
WITH NO SIGNIFICANT WEATHER AND/OR OBSTRUCTIONS TO VISIBILITY.

KYZ001>023-026-027-061>063-070>075-281600-
WESTERN AND SOUTH CENTRAL KENTUCKY

CITY           SKY/WX    TMP DP  RH WIND       PRES   REMARKS
PADUCAH        CLOUDY    24  11  57 E9        30.63S WCI  14
HENDERSON      CLOUDY    23  10  58 E10       30.67F WCI  12
OWENSBORO      MOSUNNY   24  10  55 E7        30.68S WCI  16
HOPKINSVILLE   PTSUNNY   25  11  57 E9        30.63R WCI  15
BOWLING GREEN  CLOUDY    26  12  55 NE12      30.65S WCI  16
GLASGOW        PTSUNNY   25  12  58 NE7       30.64F WCI  18
$$

KYZ024-025-028>034-038-045-046-053-281600-
NORTH CENTRAL KENTUCKY

CITY           SKY/WX    TMP DP  RH WIND       PRES   REMARKS
LOUISVILLE/SDF CLOUDY    23   7  50 E7        30.70S WCI  15
LOUISVILLE/LOU CLOUDY    21   6  52 E8        30.71R WCI  11
FORT KNOX      CLOUDY    21   8  56 E8        30.65R WCI  11
$$

KYZ035>037-039>044-047>052-055>060-089>105-281600-
NORTHEAST KENTUCKY

CITY           SKY/WX    TMP DP  RH WIND       PRES   REMARKS
LEXINGTON      CLOUDY    21   8  57 E9        30.67S WCI  11
COVINGTON      PTSUNNY   17   2  51 E7        30.71S WCI   8
FRANKFORT        N/A     19   6  57 E8        30.68S WCI   9
$$

KYZ054-064>069-076>088-106>120-281600-
SOUTHEAST KENTUCKY

CITY           SKY/WX    TMP DP  RH WIND       PRES   REMARKS
JACKSON        MOSUNNY   24   8  50 VRB3      30.63R
LONDON         CLOUDY    25   9  50 E3        30.62R
SOMERSET       CLOUDY    27  10  50 E6        30.65S WCI  20
MIDDLESBORO    CLOUDY    26  15  62 CALM      30.63R
MONTICELLO     MOSUNNY   27  13  55 NE6       30.66R WCI  21
$$




USA.gov is the U.S. government's official web portal to all federal, state and local government web resources and services.